| time (UTC) | temp F | wind direction | speed knots | gust knots | rain 1hr in | rain 24hr in | rain mn in | humidity % | barometer mb |
| 20260506232406 | 41 | 346 | 5.2 | 6.1 | 0.00 | 0.00 | 0.00 | 88 | 1011.9 |
| 20260506231409 | 41 | 349 | 5.2 | 7.8 | 0.00 | 0.00 | 0.00 | 88 | 1012.0 |
| 20260506230907 | 41 | 352 | 6.1 | 7.8 | 0.00 | 0.00 | 0.00 | 88 | 1012.1 |
| 20260506230407 | 41 | 359 | 6.1 | 6.1 | 0.00 | 0.00 | 0.00 | 87 | 1012.1 |
| 20260506225406 | 42 | 0 | 5.2 | 6.1 | 0.00 | 0.00 | 0.00 | 87 | 1012.0 |
| 20260506224908 | 42 | 0 | 4.3 | 6.1 | 0.00 | 0.00 | 0.00 | 87 | 1011.9 |
| 20260506222907 | 43 | 7 | 6.1 | 7.8 | 0.00 | 0.00 | 0.00 | 86 | 1011.9 |
| 20260506221905 | 43 | 7 | 6.1 | 8.7 | 0.00 | 0.00 | 0.00 | 85 | 1011.8 |
| 20260506221405 | 43 | 0 | 6.1 | 9.6 | 0.00 | 0.00 | 0.00 | 85 | 1011.7 |
| 20260506220904 | 44 | 353 | 6.1 | 9.6 | 0.00 | 0.00 | 0.00 | 85 | 1011.7 |
| 20260506220404 | 44 | 353 | 7.0 | 8.7 | 0.00 | 0.00 | 0.00 | 85 | 1011.8 |
| 20260506215904 | 44 | 3 | 6.1 | 8.7 | 0.00 | 0.00 | 0.00 | 84 | 1011.8 |
| 20260506215405 | 44 | 0 | 7.0 | 8.7 | 0.00 | 0.00 | 0.00 | 84 | 1011.8 |
| 20260506214906 | 45 | 359 | 6.1 | 11.3 | 0.00 | 0.00 | 0.00 | 83 | 1011.8 |
| 20260506214405 | 45 | 10 | 7.8 | 11.3 | 0.00 | 0.00 | 0.00 | 83 | 1011.7 |
| 20260506213408 | 46 | 6 | 7.0 | 10.4 | 0.00 | 0.00 | 0.00 | 83 | 1011.6 |
| 20260506212903 | 46 | 4 | 7.8 | 10.4 | 0.00 | 0.00 | 0.00 | 83 | 1011.6 |
| 20260506212403 | 46 | 353 | 7.8 | 10.4 | 0.00 | 0.00 | 0.00 | 83 | 1011.5 |
| 20260506211904 | 46 | 18 | 7.8 | 11.3 | 0.00 | 0.00 | 0.00 | 82 | 1011.5 |
| 20260506210903 | 47 | 14 | 7.8 | 11.3 | 0.00 | 0.00 | 0.00 | 82 | 1011.5 |
| 20260506210403 | 47 | 17 | 8.7 | 10.4 | 0.00 | 0.00 | 0.00 | 82 | 1011.4 |
| 20260506205903 | 47 | 7 | 7.0 | 10.4 | 0.00 | 0.00 | 0.00 | 82 | 1011.4 |
| 20260506204905 | 47 | 3 | 6.1 | 10.4 | 0.00 | 0.00 | 0.00 | 82 | 1011.5 |
| 20260506204403 | 47 | 6 | 7.8 | 10.4 | 0.00 | 0.00 | 0.00 | 82 | 1011.4 |
| 20260506203903 | 47 | 7 | 7.0 | 10.4 | 0.00 | 0.00 | 0.00 | 81 | 1011.4 |
| 20260506203402 | 47 | 14 | 7.8 | 10.4 | 0.00 | 0.00 | 0.00 | 81 | 1011.3 |
| 20260506202402 | 48 | 13 | 6.1 | 10.4 | 0.00 | 0.00 | 0.00 | 79 | 1011.3 |
| 20260506201902 | 48 | 17 | 7.8 | 10.4 | 0.00 | 0.00 | 0.00 | 80 | 1011.3 |
| 20260506201403 | 48 | 11 | 7.0 | 9.6 | 0.00 | 0.00 | 0.00 | 79 | 1011.3 |
| 20260506200401 | 48 | 356 | 5.2 | 10.4 | 0.00 | 0.00 | 0.00 | 79 | 1011.2 |
| 20260506195902 | 49 | 4 | 7.0 | 10.4 | 0.00 | 0.00 | 0.00 | 79 | 1011.1 |
| 20260506195401 | 48 | 7 | 7.0 | 9.6 | 0.00 | 0.00 | 0.00 | 79 | 1011.1 |
| 20260506194901 | 49 | 1 | 6.1 | 9.6 | 0.00 | 0.00 | 0.00 | 79 | 1011.0 |
| 20260506194359 | 49 | 14 | 5.2 | 9.6 | 0.00 | 0.00 | 0.00 | 78 | 1011.0 |
| 20260506193859 | 49 | 25 | 7.0 | 9.6 | 0.00 | 0.00 | 0.00 | 77 | 1011.0 |
| 20260506193400 | 49 | 18 | 7.0 | 9.6 | 0.00 | 0.00 | 0.00 | 77 | 1011.0 |
| 20260506192859 | 49 | 25 | 7.8 | 10.4 | 0.00 | 0.00 | 0.00 | 76 | 1010.9 |
| 20260506192356 | 50 | 17 | 8.7 | 12.2 | 0.00 | 0.00 | 0.00 | 75 | 1010.9 |
| 20260506191859 | 50 | 32 | 9.6 | 12.2 | 0.00 | 0.00 | 0.00 | 75 | 1010.9 |
| 20260506191357 | 50 | 21 | 8.7 | 10.4 | 0.00 | 0.00 | 0.00 | 75 | 1010.8 |
| 20260506190356 | 51 | 42 | 7.0 | 13.9 | 0.00 | 0.00 | 0.00 | 74 | 1010.7 |
| 20260506185858 | 51 | 24 | 9.6 | 13.9 | 0.00 | 0.00 | 0.00 | 73 | 1010.6 |
| 20260506184856 | 51 | 42 | 5.2 | 6.1 | 0.00 | 0.00 | 0.00 | 76 | 1010.5 |
| 20260506184358 | 51 | 11 | 3.5 | 5.2 | 0.00 | 0.00 | 0.00 | 78 | 1010.5 |
| 20260506183856 | 51 | 15 | 1.7 | 3.5 | 0.00 | 0.00 | 0.00 | 79 | 1010.4 |
| 20260506183355 | 51 | 31 | 2.6 | 3.5 | 0.00 | 0.00 | 0.00 | 78 | 1010.4 |
| 20260506182855 | 51 | 38 | 2.6 | 3.5 | 0.00 | 0.00 | 0.00 | 77 | 1010.3 |
| 20260506182356 | 51 | 49 | 2.6 | 3.5 | 0.00 | 0.00 | 0.00 | 77 | 1010.2 |
| 20260506181855 | 51 | 51 | 1.7 | 2.6 | 0.00 | 0.00 | 0.00 | 77 | 1010.2 |
| 20260506180854 | 52 | 51 | 1.7 | 3.5 | 0.00 | 0.00 | 0.00 | 76 | 1010.0 |
| 20260506180356 | 52 | 49 | 1.7 | 3.5 | 0.00 | 0.00 | 0.00 | 76 | 1009.9 |
| 20260506175855 | 52 | 49 | 2.6 | 3.5 | 0.00 | 0.00 | 0.00 | 76 | 1009.8 |
| 20260506175354 | 52 | 62 | 1.7 | 2.6 | 0.00 | 0.00 | 0.00 | 74 | 1009.7 |
| 20260506174854 | 52 | 62 | 1.7 | 3.5 | 0.00 | 0.00 | 0.00 | 74 | 1009.7 |
| 20260506174356 | 52 | 68 | 2.6 | 3.5 | 0.00 | 0.00 | 0.00 | 73 | 1009.7 |
| 20260506173854 | 52 | 111 | 0.9 | 1.7 | 0.00 | 0.00 | 0.00 | 73 | 1009.7 |
| 20260506173355 | 53 | 111 | 0.0 | 1.7 | 0.00 | 0.00 | 0.00 | 72 | 1009.6 |
| 20260506172351 | 53 | 111 | 0.9 | 2.6 | 0.00 | 0.00 | 0.00 | 72 | 1009.6 |
| 20260506171854 | 53 | 111 | 1.7 | 2.6 | 0.00 | 0.00 | 0.00 | 72 | 1009.5 |
| 20260506170852 | 53 | 110 | 0.0 | 2.6 | 0.00 | 0.00 | 0.00 | 70 | 1009.5 |
| 20260506170351 | 53 | 110 | 0.9 | 3.5 | 0.00 | 0.00 | 0.00 | 72 | 1009.5 |
| 20260506165351 | 53 | 120 | 1.7 | 2.6 | 0.00 | 0.00 | 0.00 | 72 | 1009.4 |
| 20260506164854 | 53 | 124 | 1.7 | 3.5 | 0.00 | 0.00 | 0.00 | 72 | 1009.4 |
| 20260506164352 | 53 | 97 | 1.7 | 3.5 | 0.00 | 0.00 | 0.00 | 71 | 1009.4 |
| 20260506163852 | 52 | 104 | 2.6 | 5.2 | 0.00 | 0.00 | 0.00 | 72 | 1009.4 |
| 20260506162851 | 53 | 107 | 5.2 | 5.2 | 0.00 | 0.00 | 0.00 | 71 | 1009.3 |
| 20260506162351 | 53 | 86 | 3.5 | 5.2 | 0.00 | 0.00 | 0.00 | 72 | 1009.3 |
| 20260506161850 | 53 | 104 | 3.5 | 6.1 | 0.00 | 0.00 | 0.00 | 71 | 1009.3 |
| 20260506161350 | 53 | 106 | 4.3 | 6.1 | 0.00 | 0.00 | 0.00 | 71 | 1009.3 |
| 20260506160849 | 53 | 94 | 3.5 | 7.8 | 0.00 | 0.00 | 0.00 | 71 | 1009.2 |
| 20260506160349 | 53 | 113 | 5.2 | 7.8 | 0.00 | 0.00 | 0.00 | 71 | 1009.3 |
| 20260506155849 | 53 | 118 | 5.2 | 7.8 | 0.00 | 0.00 | 0.00 | 70 | 1009.3 |
| 20260506153846 | 54 | 85 | 5.2 | 8.7 | 0.00 | 0.00 | 0.00 | 69 | 1009.3 |
| 20260506153346 | 53 | 107 | 5.2 | 8.7 | 0.00 | 0.00 | 0.00 | 69 | 1009.4 |
| 20260506152846 | 53 | 90 | 7.0 | 9.6 | 0.00 | 0.00 | 0.00 | 67 | 1009.3 |
| 20260506151847 | 54 | 109 | 6.1 | 10.4 | 0.00 | 0.00 | 0.00 | 68 | 1009.3 |
| 20260506151345 | 54 | 85 | 7.8 | 10.4 | 0.00 | 0.00 | 0.00 | 67 | 1009.3 |
| 20260506150846 | 54 | 58 | 7.0 | 13.0 | 0.00 | 0.00 | 0.00 | 67 | 1009.3 |
| 20260506150347 | 54 | 78 | 7.8 | 13.0 | 0.00 | 0.00 | 0.00 | 68 | 1009.3 |
| 20260506145845 | 54 | 58 | 8.7 | 11.3 | 0.00 | 0.00 | 0.00 | 66 | 1009.3 |
| 20260506145346 | 54 | 86 | 7.8 | 10.4 | 0.00 | 0.00 | 0.00 | 67 | 1009.2 |
| 20260506144845 | 54 | 86 | 7.0 | 10.4 | 0.00 | 0.00 | 0.00 | 67 | 1009.2 |
| 20260506143843 | 53 | 94 | 7.0 | 11.3 | 0.00 | 0.00 | 0.00 | 67 | 1009.1 |
| 20260506143344 | 53 | 63 | 7.8 | 11.3 | 0.00 | 0.00 | 0.00 | 67 | 1009.1 |
| 20260506142344 | 53 | 68 | 7.8 | 12.2 | 0.00 | 0.00 | 0.00 | 68 | 1009.1 |
| 20260506141843 | 53 | 83 | 9.6 | 12.2 | 0.00 | 0.00 | 0.00 | 67 | 1009.2 |
| 20260506141345 | 54 | 83 | 7.0 | 13.9 | 0.00 | 0.00 | 0.00 | 68 | 1009.1 |
| 20260506140844 | 54 | 82 | 10.4 | 13.9 | 0.00 | 0.00 | 0.00 | 66 | 1009.1 |
| 20260506140344 | 54 | 94 | 9.6 | 13.9 | 0.00 | 0.00 | 0.00 | 68 | 1009.1 |
| 20260506135848 | 53 | 78 | 7.8 | 12.2 | 0.00 | 0.00 | 0.00 | 68 | 1009.0 |
| 20260506135344 | 53 | 94 | 8.7 | 13.9 | 0.00 | 0.00 | 0.00 | 68 | 1009.1 |
| 20260506134844 | 53 | 97 | 11.3 | 13.9 | 0.00 | 0.00 | 0.00 | 67 | 1009.2 |
| 20260506134344 | 53 | 70 | 8.7 | 13.0 | 0.00 | 0.00 | 0.00 | 67 | 1009.1 |
| 20260506133844 | 53 | 75 | 7.8 | 11.3 | 0.00 | 0.00 | 0.00 | 68 | 1009.1 |
| 20260506133344 | 52 | 70 | 8.7 | 13.0 | 0.00 | 0.00 | 0.00 | 68 | 1009.1 |
| 20260506132844 | 52 | 82 | 7.8 | 15.6 | 0.00 | 0.00 | 0.00 | 70 | 1009.2 |
| 20260506132349 | 52 | 86 | 10.4 | 15.6 | 0.00 | 0.00 | 0.00 | 68 | 1009.1 |
| 20260506131843 | 52 | 70 | 9.6 | 15.6 | 0.00 | 0.00 | 0.00 | 67 | 1009.2 |
| 20260506131343 | 52 | 82 | 10.4 | 15.6 | 0.00 | 0.00 | 0.00 | 67 | 1009.2 |
| 20260506130845 | 51 | 90 | 10.4 | 16.5 | 0.00 | 0.00 | 0.00 | 67 | 1009.1 |
| 20260506130342 | 51 | 85 | 13.0 | 16.5 | 0.00 | 0.00 | 0.00 | 66 | 1009.1 |
| 20260506125846 | 52 | 83 | 11.3 | 14.8 | 0.00 | 0.00 | 0.00 | 66 | 1009.2 |
| 20260506125345 | 52 | 93 | 9.6 | 13.9 | 0.00 | 0.00 | 0.00 | 68 | 1009.3 |
| 20260506124342 | 52 | 51 | 8.7 | 13.9 | 0.00 | 0.00 | 0.00 | 67 | 1009.2 |
| 20260506123842 | 52 | 69 | 10.4 | 16.5 | 0.00 | 0.00 | 0.00 | 66 | 1009.2 |
| 20260506122844 | 52 | 69 | 11.3 | 14.8 | 0.00 | 0.00 | 0.00 | 66 | 1009.2 |
| 20260506122342 | 52 | 63 | 10.4 | 15.6 | 0.00 | 0.00 | 0.00 | 67 | 1009.2 |
| 20260506121842 | 52 | 70 | 8.7 | 18.2 | 0.00 | 0.00 | 0.00 | 70 | 1009.2 |
| 20260506121342 | 52 | 65 | 13.0 | 18.2 | 0.00 | 0.00 | 0.00 | 69 | 1009.2 |
| 20260506120843 | 52 | 75 | 11.3 | 16.5 | 0.00 | 0.00 | 0.00 | 69 | 1009.2 |
| 20260506120340 | 52 | 59 | 12.2 | 17.4 | 0.00 | 0.00 | 0.00 | 70 | 1009.0 |
| 20260506115841 | 52 | 56 | 13.0 | 17.4 | 0.00 | 0.00 | 0.00 | 70 | 1009.0 |
| 20260506115341 | 51 | 49 | 13.0 | 17.4 | 0.00 | 0.00 | 0.00 | 71 | 1008.9 |
| 20260506114843 | 51 | 65 | 9.6 | 13.9 | 0.00 | 0.00 | 0.00 | 72 | 1008.9 |
| 20260506114341 | 51 | 69 | 12.2 | 15.6 | 0.00 | 0.00 | 0.00 | 71 | 1008.8 |
| 20260506113842 | 51 | 51 | 9.6 | 15.6 | 0.00 | 0.00 | 0.00 | 72 | 1008.8 |
| 20260506113531 | 51 | 49 | 13.9 | 15.6 | 0.00 | 0.00 | 0.00 | 70 | 1008.8 |
| 20260506112841 | 51 | 51 | 10.4 | 13.0 | 0.00 | 0.00 | 0.00 | 70 | 1008.8 |
| 20260506112344 | 51 | 52 | 8.7 | 13.0 | 0.00 | 0.00 | 0.00 | 72 | 1008.8 |
| 20260506111841 | 51 | 51 | 9.6 | 13.0 | 0.00 | 0.00 | 0.00 | 71 | 1008.7 |
| 20260506111344 | 51 | 38 | 7.8 | 12.2 | 0.00 | 0.00 | 0.00 | 71 | 1008.7 |
| 20260506110839 | 50 | 27 | 8.7 | 14.8 | 0.00 | 0.00 | 0.00 | 72 | 1008.7 |
| 20260506110338 | 50 | 46 | 11.3 | 14.8 | 0.00 | 0.00 | 0.00 | 70 | 1008.6 |
| 20260506105839 | 50 | 39 | 7.0 | 15.6 | 0.00 | 0.00 | 0.00 | 72 | 1008.6 |
| 20260506105339 | 50 | 61 | 12.2 | 15.6 | 0.00 | 0.00 | 0.00 | 69 | 1008.7 |
| 20260506104838 | 50 | 61 | 8.7 | 14.8 | 0.00 | 0.00 | 0.00 | 72 | 1008.6 |
| 20260506104338 | 50 | 42 | 7.8 | 14.8 | 0.00 | 0.00 | 0.00 | 70 | 1008.6 |
| 20260506103839 | 50 | 46 | 8.7 | 15.6 | 0.00 | 0.00 | 0.00 | 71 | 1008.6 |
| 20260506102838 | 50 | 42 | 11.3 | 15.6 | 0.00 | 0.00 | 0.00 | 69 | 1008.5 |
| 20260506102337 | 50 | 55 | 12.2 | 15.6 | 0.00 | 0.00 | 0.00 | 68 | 1008.6 |
| 20260506101838 | 51 | 58 | 9.6 | 14.8 | 0.00 | 0.00 | 0.00 | 69 | 1008.5 |
| 20260506101337 | 51 | 56 | 8.7 | 13.9 | 0.00 | 0.00 | 0.00 | 70 | 1008.4 |
| 20260506100838 | 50 | 37 | 11.3 | 16.5 | 0.00 | 0.00 | 0.00 | 68 | 1008.5 |
| 20260506095836 | 51 | 62 | 10.4 | 14.8 | 0.00 | 0.00 | 0.00 | 68 | 1008.4 |
| 20260506095336 | 51 | 55 | 11.3 | 17.4 | 0.00 | 0.00 | 0.00 | 67 | 1008.4 |
| 20260506094337 | 51 | 49 | 13.0 | 15.6 | 0.00 | 0.00 | 0.00 | 67 | 1008.4 |
| 20260506093840 | 51 | 45 | 12.2 | 16.5 | 0.00 | 0.00 | 0.00 | 67 | 1008.3 |
| 20260506093335 | 51 | 46 | 11.3 | 16.5 | 0.00 | 0.00 | 0.00 | 68 | 1008.3 |
| 20260506092836 | 51 | 52 | 7.8 | 12.2 | 0.00 | 0.00 | 0.00 | 70 | 1008.2 |
| 20260506091835 | 51 | 44 | 9.6 | 15.6 | 0.00 | 0.00 | 0.00 | 68 | 1008.3 |
| 20260506091335 | 51 | 39 | 9.6 | 14.8 | 0.00 | 0.00 | 0.00 | 70 | 1008.1 |
| 20260506090847 | 51 | 42 | 11.3 | 14.8 | 0.00 | 0.00 | 0.00 | 69 | 1008.1 |
| 20260506090333 | 51 | 54 | 8.7 | 14.8 | 0.00 | 0.00 | 0.00 | 69 | 1008.1 |
| 20260506085832 | 51 | 35 | 10.4 | 14.8 | 0.00 | 0.00 | 0.00 | 70 | 1008.1 |
| 20260506084832 | 51 | 52 | 9.6 | 17.4 | 0.00 | 0.00 | 0.00 | 71 | 1008.1 |
| 20260506083832 | 51 | 42 | 7.8 | 14.8 | 0.00 | 0.00 | 0.00 | 73 | 1008.0 |
| 20260506083332 | 51 | 37 | 10.4 | 14.8 | 0.00 | 0.00 | 0.00 | 72 | 1008.0 |
| 20260506082832 | 51 | 44 | 8.7 | 14.8 | 0.00 | 0.00 | 0.00 | 73 | 1007.8 |
| 20260506081832 | 51 | 31 | 9.6 | 14.8 | 0.00 | 0.00 | 0.00 | 73 | 1007.9 |
| 20260506081332 | 51 | 52 | 10.4 | 14.8 | 0.00 | 0.00 | 0.00 | 74 | 1007.9 |
| 20260506080831 | 50 | 44 | 9.6 | 13.9 | 0.00 | 0.00 | 0.00 | 74 | 1007.8 |
| 20260506080330 | 50 | 54 | 10.4 | 13.9 | 0.00 | 0.00 | 0.00 | 74 | 1007.8 |
| 20260506073330 | 50 | 41 | 9.6 | 14.8 | 0.00 | 0.00 | 0.00 | 79 | 1007.7 |
| 20260506072831 | 50 | 31 | 8.7 | 13.9 | 0.00 | 0.00 | 0.00 | 79 | 1007.7 |
| 20260506072330 | 50 | 48 | 10.4 | 13.9 | 0.00 | 0.00 | 0.00 | 78 | 1007.7 |
| 20260506070831 | 50 | 35 | 9.6 | 13.9 | 0.00 | 0.00 | 0.00 | 77 | 1007.6 |
| 20260506070330 | 50 | 37 | 10.4 | 16.5 | 0.00 | 0.00 | 0.00 | 77 | 1007.6 |
| 20260506062328 | 49 | 28 | 7.8 | 12.2 | 0.00 | 0.00 | 0.00 | 77 | 1007.6 |
| 20260506061828 | 49 | 35 | 7.8 | 10.4 | 0.00 | 0.00 | 0.00 | 77 | 1007.4 |
| 20260506061328 | 49 | 28 | 7.8 | 10.4 | 0.00 | 0.00 | 0.00 | 77 | 1007.5 |
| 20260506060830 | 49 | 27 | 7.8 | 11.3 | 0.00 | 0.00 | 0.00 | 77 | 1007.4 |
| 20260506060330 | 49 | 24 | 7.8 | 11.3 | 0.00 | 0.00 | 0.00 | 77 | 1007.5 |
| 20260506051323 | 49 | 41 | 5.2 | 7.8 | 0.00 | 0.00 | 0.00 | 81 | 1007.4 |
| 20260506050822 | 49 | 46 | 6.1 | 10.4 | 0.00 | 0.00 | 0.00 | 81 | 1007.4 |
| 20260506043819 | 49 | 31 | 7.0 | 10.4 | 0.00 | 0.00 | 0.00 | 80 | 1007.3 |
| 20260506043320 | 49 | 28 | 7.8 | 10.4 | 0.00 | 0.00 | 0.00 | 80 | 1007.3 |
| 20260506042317 | 49 | 32 | 8.7 | 12.2 | 0.00 | 0.00 | 0.00 | 80 | 1007.2 |
| 20260506041817 | 49 | 24 | 9.6 | 12.2 | 0.00 | 0.00 | 0.00 | 81 | 1007.2 |
| 20260506041317 | 49 | 31 | 8.7 | 11.3 | 0.00 | 0.00 | 0.00 | 81 | 1007.2 |
| 20260506040320 | 49 | 25 | 8.7 | 13.0 | 0.00 | 0.00 | 0.00 | 82 | 1007.3 |
| 20260506035816 | 49 | 30 | 8.7 | 13.0 | 0.00 | 0.00 | 0.00 | 82 | 1007.2 |
| 20260506035318 | 49 | 28 | 8.7 | 13.0 | 0.00 | 0.00 | 0.00 | 82 | 1007.1 |
| 20260506034819 | 49 | 28 | 9.6 | 13.0 | 0.00 | 0.00 | 0.00 | 82 | 1007.1 |
| 20260506034318 | 49 | 13 | 10.4 | 13.0 | 0.00 | 0.00 | 0.00 | 83 | 1007.2 |
| 20260506033817 | 49 | 27 | 7.8 | 13.0 | 0.00 | 0.00 | 0.00 | 83 | 1007.3 |
| 20260506033320 | 49 | 28 | 9.6 | 13.0 | 0.00 | 0.00 | 0.00 | 84 | 1007.3 |
| 20260506032816 | 49 | 23 | 9.6 | 13.0 | 0.00 | 0.00 | 0.00 | 84 | 1007.3 |
| 20260506032315 | 49 | 24 | 9.6 | 13.9 | 0.00 | 0.00 | 0.00 | 84 | 1007.5 |
| 20260506031818 | 49 | 8 | 9.6 | 13.9 | 0.00 | 0.00 | 0.00 | 84 | 1007.5 |
| 20260506031316 | 49 | 21 | 10.4 | 13.0 | 0.00 | 0.00 | 0.00 | 84 | 1007.5 |
| 20260506030817 | 49 | 27 | 7.8 | 11.3 | 0.00 | 0.00 | 0.00 | 84 | 1007.5 |
| 20260506030315 | 49 | 14 | 8.7 | 11.3 | 0.00 | 0.00 | 0.00 | 85 | 1007.5 |
| 20260506025315 | 49 | 23 | 8.7 | 11.3 | 0.00 | 0.00 | 0.00 | 84 | 1007.6 |
| 20260506023818 | 49 | 15 | 7.8 | 11.3 | 0.00 | 0.00 | 0.00 | 85 | 1007.6 |
| 20260506022814 | 49 | 18 | 7.8 | 10.4 | 0.00 | 0.00 | 0.00 | 84 | 1007.6 |
| 20260506022314 | 49 | 25 | 8.7 | 11.3 | 0.00 | 0.00 | 0.00 | 84 | 1007.6 |
| 20260506021815 | 49 | 25 | 7.8 | 11.3 | 0.00 | 0.00 | 0.00 | 84 | 1007.7 |
| 20260506021314 | 49 | 30 | 7.8 | 9.6 | 0.00 | 0.00 | 0.00 | 84 | 1007.8 |
| 20260506020815 | 49 | 21 | 7.8 | 10.4 | 0.00 | 0.00 | 0.00 | 84 | 1007.7 |
| 20260506015816 | 49 | 15 | 7.0 | 9.6 | 0.00 | 0.00 | 0.00 | 84 | 1007.9 |
| 20260506014815 | 49 | 15 | 7.0 | 9.6 | 0.00 | 0.00 | 0.00 | 83 | 1008.0 |
| 20260506014314 | 49 | 10 | 7.0 | 10.4 | 0.00 | 0.00 | 0.00 | 83 | 1008.0 |
| 20260506013814 | 49 | 14 | 7.8 | 10.4 | 0.00 | 0.00 | 0.00 | 83 | 1008.1 |
| 20260506012813 | 49 | 20 | 7.8 | 10.4 | 0.00 | 0.00 | 0.00 | 83 | 1008.1 |
| 20260506012313 | 49 | 14 | 7.8 | 10.4 | 0.00 | 0.00 | 0.00 | 83 | 1008.1 |
| 20260506011814 | 49 | 8 | 7.0 | 11.3 | 0.00 | 0.00 | 0.00 | 83 | 1008.1 |
| 20260506011314 | 49 | 24 | 8.7 | 11.3 | 0.00 | 0.00 | 0.00 | 83 | 1008.1 |
| 20260506010814 | 49 | 7 | 7.0 | 10.4 | 0.00 | 0.00 | 0.00 | 83 | 1008.1 |
| 20260506010314 | 49 | 10 | 7.8 | 10.4 | 0.00 | 0.00 | 0.00 | 83 | 1008.2 |
| 20260506005312 | 49 | 14 | 7.8 | 9.6 | 0.00 | 0.00 | 0.00 | 82 | 1008.2 |
| 20260506004813 | 49 | 11 | 7.0 | 9.6 | 0.00 | 0.00 | 0.00 | 82 | 1008.3 |
| 20260506004312 | 49 | 11 | 6.1 | 9.6 | 0.00 | 0.00 | 0.00 | 82 | 1008.3 |
| 20260506003812 | 49 | 14 | 7.0 | 9.6 | 0.00 | 0.00 | 0.00 | 82 | 1008.4 |
| 20260506003315 | 49 | 11 | 6.1 | 10.4 | 0.00 | 0.00 | 0.00 | 82 | 1008.4 |
| 20260506002814 | 49 | 17 | 7.8 | 10.4 | 0.00 | 0.00 | 0.00 | 82 | 1008.4 |
| 20260506002317 | 49 | 28 | 7.0 | 10.4 | 0.00 | 0.00 | 0.00 | 82 | 1008.6 |
| 20260506000813 | 49 | 32 | 7.8 | 11.3 | 0.00 | 0.00 | 0.00 | 81 | 1008.6 |
| 20260506000312 | 49 | 24 | 7.8 | 11.3 | 0.00 | 0.00 | 0.00 | 81 | 1008.7 |
| 20260505235811 | 49 | 31 | 7.0 | 9.6 | 0.00 | 0.00 | 0.00 | 81 | 1008.7 |
| 20260505235311 | 49 | 30 | 6.1 | 10.4 | 0.00 | 0.00 | 0.00 | 81 | 1008.8 |
| 20260505234808 | 49 | 18 | 5.2 | 10.4 | 0.00 | 0.00 | 0.00 | 81 | 1008.8 |
| 20260505234310 | 49 | 14 | 7.8 | 10.4 | 0.00 | 0.00 | 0.00 | 81 | 1008.9 |
| 20260505233309 | 49 | 25 | 7.8 | 12.2 | 0.00 | 0.00 | 0.00 | 81 | 1008.9 |